SCP
0 0 0 0 0 0 0 0 -0 0 0 -0 0 0 -0 -0 -0 -0 0 0 0 -0 -0 -0 -0 -0 -0 -0 -0 -0 -0 -0 -0 -0 0 0 0 0 -0 -0 -0 -0 -0 -0 -0 0 0 0 0
0 0 0 -0 0 0 0 0 0 -0 -0 -0 0 0 0 -0 -0 -0 0 -0 0 -0 -0 -0 -0 -0 -0 -0 -0 -0 -0 -0 -0 -0 -0 -0 -0 -0 -0 -0 -0 -0 -0 -0 -0 0 0 0 0
0 0 -0 -0 0 0 0 0 0 -0 -0 -0 -0 -0 -0 -0 -0 -0 0 -0 -0 -0 -0 -0 -0 -0 -0 -0 -0 -0 -0 -0 -0 -0 -0 -0 -0 -0 -0 -0 0 0 0 -0 -0 -0 0 0 0
0 0 0 0 0 0 0 0 -0 -0 -0 -0 -0 0 0 -0 -0 -0 -0 -0 0 0 -0 -0 -0 -0 -0 -0 -0 -0 -0 -0 -0 -0 -0 -0 -0 0 0 0 0 0 0 0 0 0 0 0 0
0 -0 0 0 0 0 0 0 0 0 -0 0 -0 0 0 0 0 -0 0 -0 0 0 0 -0 0 -0 -0 -0 -0 -0 -0 -0 -0 -0 -0 -0 -0 0 0 0 0 0 0 0 0 0 0 0 0
0 0 0 -0 0 0 0 0 0 0 0 0 0 0 0 -0 -0 -0 0 0 0 0 0 -0 -0 -0 -0 0 -0 -0 -0 -0 -0 0 0 0 -0 0 0 0 0 0 0 0 0 0 0 0 0
0 0 0 0 0 0 0 0 0 0 0 0 0 0 0 -0 -0 0 0 0 0 0 0 0 0 0 -0 -0 0 0 0 0 0 0 0 0 0 0 0 0 0 0 0 0 0 0 0 0 0
0 0 0 0 0 0 0 0 0 0 0 0 0 0 0 0 -0 0 0 0 0 0 0 0 0 0 0 0 0 0 0 0 0 0 0 0 0 0 0 0 0 0 0 0 0 0 0 0 0
0 0 0 0 0 0 0 0 0 0 0 0 0 0 0 0 0 0 0 0 0 0 0 0 0 0 0 0 0 0 0 0 0 0 0 0 0 0 0 0 0 0 0 0 0 0 0 0 0
0 0 0 0 0 0 0 0 0 0 0 0 0 0 0 0 0 0 0 0 0 0 0 0 0 0 0 0 0 0 0 0 0 0 0 0 0 0 0 0 0 0 0 0 0 0 0 0 0
0 0 0 0 0 0 0 0 0 0 0 0 0 0 0 0 0 0 0 0 0 0 0 0 0 0 0 0 0 0 0 0 0 0 0 0 0 0 0 0 0 0 0 0 0 0 0 0 0
0 0 0 0 0 0 0 0 0 0 0 0 0 0 0 0 0 0 0 0 0 0 0 0 0 0 0 0 0 0 0 0 0 0 0 0 0 0 0 0 0 0 0 0 0 0 0 0 0
0 0 0 0 0 0 0 0 0 0 0 0 0 0 0 0 0 0 0 0 0 0 0 0 0 0 0 0 0 0 0 0 0 0 0 0 0 0 0 0 0 0 0 0 0 0 0 0 0
0 0 0 0 0 0 0 0 0 0 0 0 0 0 0 0 0 0 0 0 0 0 0 0 0 0 0 0 0 0 0 0 0 0 0 0 0 0 0 0 0 0 0 0 0 0 0 0 0
0 0 0 0 0 0 0 0 0 0 0 0 0 0 0 0 0 0 0 0 0 0 0 0 0 0 0 0 0 0 0 0 0 0 0 0 0 0 0 0 0 0 0 0 0 0 0 -0 0
0 0 0 0 0 0 0 0 0 0 0 0 0 0 0 0 0 0 0 0 0 0 0 0 0 0 0 0 0 0 0 0 0 0 0 0 0 0 0 0 0 0 0 0 0 0 0 -0 -0
0 0 0 0 0 0 0 0 0 0 0 0 0 0 0 0 0 0 0 0 0 0 0 0 0 0 0 0 0 0 0 0 0 0 0 0 0 0 0 0 0 0 0 0 0 0 0 0 0
0 0 0 0 0 0 0 0 0 0 0 0 0 0 0 0 0 0 0 0 0 0 0 0 0 0 0 0 0 0 0 0 0 0 0 0 0 0 0 0 0 0 0 0 0 0 0 0 0
0 0 0 0 0 0 0 0 0 0 0 0 0 0 0 0 0 0 0 0 0 0 0 0 0 0 0 0 0 0 0 0 0 0 0 0 0 0 0 0 0 0 0 0 0 0 0 0 0
0 0 0 0 0 0 0 0 0 0 0 0 0 0 0 0 0 0 0 0 0 0 0 0 0 0 0 0 0 0 0 0 0 0 0 0 0 0 0 0 0 0 0 0 0 0 0 0 0
0 0 0 0 0 0 0 0 0 0 0 0 0 0 0 0 0 0 0 0 0 0 0 0 0 0 0 0 0 0 0 0 0 0 0 0 0 0 0 0 0 0 0 0 0 0 0 0 0
0 0 0 0 0 0 0 0 0 0 0 0 0 0 0 0 0 0 0 0 0 0 0 0 0 0 0 0 0 0 0 0 0 0 0 0 0 0 0 0 0 0 0 0 0 0 0 0 0
0 0 0 0 0 0 0 0 0 0 0 0 0 0 0 0 0 0 0 0 0 0 0 0 0 0 0 0 0 0 0 0 0 0 0 0 0 0 0 0 0 0 0 0 0 0 0 0 0
0 0 0 0 0 0 0 0 0 0 0 0 0 0 0 0 0 0 0 0 0 0 0 0 0 0 0 0 0 0 0 0 0 0 0 0 0 0 0 0 0 0 0 0 0 0 0 0 0
0 0 0 0 0 0 0 0 0 0 0 0 0 0 0 0 0 0 0 0 0 0 0 0 0 0 0 0 0 0 0 0 0 0 0 0 0 0 0 0 0 0 0 0 0 0 0 0 0
0 0 0 0 0 0 0 0 0 0 0 0 0 0 0 0 0 0 0 0 0 0 0 0 0 0 0 0 0 0 0 0 0 0 0 0 0 0 0 0 0 0 0 0 0 0 0 0 0
0 0 0 0 0 0 0 0 0 0 0 0 0 0 0 0 0 0 0 0 0 0 0 0 0 0 0 0 0 0 0 0 0 0 0 0 0 0 0 0 0 0 0 0 0 0 0 0 0
0 0 0 0 0 0 0 0 0 0 0 0 0 0 0 0 0 0 0 0 0 0 0 0 0 0 0 0 0 0 0 0 0 0 0 0 0 0 0 0 0 0 0 0 0 0 0 0 0
0 0 0 0 0 0 0 0 0 0 0 0 0 0 0 0 0 0 0 0 0 0 0 0 0 0 0 0 0 0 0 0 0 0 0 0 0 0 0 0 0 0 0 0 0 0 0 0 0
0 0 0 0 0 0 0 0 0 0 0 0 0 0 0 0 0 0 0 0 0 0 0 0 0 0 0 0 0 0 0 0 0 0 0 0 0 0 0 0 0 0 0 0 0 0 0 0 0
Wind_Speed_500mb
4 3 5 3 6 2 8 8 4 3 3 3 2 4 10 8 10 7 7 6 7 24 37 33 30 27 25 23 22 20 16 12 10 8 8 7 5 8 12 11 13 13 14 11 11 12 12 9 8
4 5 4 1 4 10 11 4 5 6 4 1 2 1 2 13 9 6 8 6 9 23 35 32 32 28 23 22 25 21 16 13 9 8 7 7 7 3 6 14 15 15 14 14 11 11 11 8 5
3 4 2 1 1 8 9 4 3 3 2 1 2 3 5 7 11 7 8 6 9 19 32 31 29 30 26 23 23 21 17 12 11 9 6 5 3 2 6 14 16 14 13 12 10 11 10 7 4
3 3 5 3 13 6 5 6 2 1 3 2 1 9 7 10 6 8 7 8 9 13 28 29 25 27 26 25 24 23 18 14 12 11 6 6 16 8 8 14 16 15 13 10 9 11 9 8 3
3 0 3 6 7 5 2 2 3 4 3 3 3 8 9 12 9 9 9 9 10 11 20 26 25 22 22 21 19 19 17 15 12 10 8 5 5 5 10 17 17 16 12 8 11 10 9 6 5
0 0 6 9 9 4 3 4 3 4 4 4 3 6 9 12 7 6 7 7 9 13 14 20 26 25 23 22 22 21 19 17 16 13 10 11 7 8 11 16 12 13 7 7 9 8 8 6 4
1 2 2 8 12 9 5 2 3 4 7 9 3 5 11 9 10 2 3 4 7 10 15 17 22 28 27 25 23 22 20 19 17 15 15 16 12 12 12 14 12 8 4 7 8 8 6 4 3
4 1 8 5 12 8 5 5 3 6 6 4 3 3 5 13 9 8 9 9 11 13 16 18 20 25 27 27 27 25 22 20 19 20 20 19 16 16 18 16 12 8 8 8 8 8 7 3 1
4 4 5 9 12 10 5 6 3 3 0 6 5 3 10 17 12 10 13 12 13 16 17 19 22 24 27 30 31 27 25 23 23 23 22 20 19 17 14 18 12 11 9 12 10 8 6 3 3
1 4 3 4 6 9 7 2 3 5 5 9 6 12 18 16 14 15 16 17 17 18 21 22 24 25 26 29 32 27 29 28 27 24 23 23 19 16 15 15 15 19 13 11 11 11 10 9 8
2 2 6 7 8 5 7 3 3 3 5 9 11 11 5 0 5 9 12 16 19 22 25 29 30 30 30 26 25 26 30 30 27 24 23 24 21 22 17 18 17 20 19 16 20 19 13 13 13
5 4 5 5 10 8 7 5 5 5 4 5 4 4 7 8 8 6 4 3 6 10 15 24 33 37 35 31 23 20 23 24 23 23 21 18 17 21 20 17 17 18 19 17 19 21 22 18 15
5 4 8 9 13 11 8 10 6 8 7 7 4 1 3 6 6 6 5 6 8 11 15 19 25 29 38 35 25 20 21 26 28 31 29 25 25 22 19 18 18 17 20 22 20 24 24 22 19
5 5 12 13 10 8 10 7 11 8 9 4 4 1 2 3 4 5 4 7 12 17 20 21 22 24 33 38 33 31 27 25 26 26 29 28 25 24 24 23 18 20 22 24 23 24 29 36 25
3 9 13 18 7 9 20 10 9 7 12 6 1 3 6 7 5 6 9 10 11 13 14 14 14 21 40 44 40 33 26 21 17 16 22 22 24 31 26 23 26 28 29 21 24 21 26 31 42
5 5 7 6 8 7 15 8 15 3 14 6 2 3 4 8 9 8 5 6 7 8 6 5 10 23 39 42 38 32 25 17 11 7 10 16 18 17 22 23 21 15 11 8 12 16 23 30 43
6 12 12 6 7 6 16 3 14 7 10 8 4 2 2 2 2 2 5 8 11 15 18 19 26 32 36 38 35 28 24 16 13 9 5 1 14 16 8 10 11 9 7 8 12 17 23 29 36
16 12 10 13 8 10 13 13 14 10 12 10 8 6 5 4 5 11 15 17 20 25 26 29 33 36 35 34 33 31 25 21 17 12 8 3 2 9 12 6 4 9 12 14 17 23 29 36 46
7 10 18 7 5 9 24 23 24 18 14 13 12 11 10 9 13 18 21 23 29 33 35 37 38 44 41 40 33 30 28 26 20 15 13 6 5 3 5 8 11 9 16 17 18 19 23 27 26
13 19 23 11 7 8 20 26 15 22 15 15 16 15 15 16 18 24 28 31 35 39 39 39 38 38 33 31 25 25 23 23 23 20 15 11 7 5 5 10 12 13 16 16 17 18 22 25 32
25 27 23 18 3 8 11 27 25 9 11 13 15 18 19 20 23 31 36 40 42 42 42 39 37 35 33 31 32 35 36 35 33 30 28 27 24 22 19 18 18 17 17 20 23 24 26 29 31
28 24 19 16 9 19 5 13 8 14 15 20 24 26 27 30 35 41 46 51 51 51 49 47 45 43 41 38 35 34 34 37 35 30 27 24 21 19 18 18 17 18 20 21 25 27 29 30 30
10 9 19 13 21 10 16 12 8 10 21 25 36 36 34 33 39 46 50 54 54 51 49 45 43 41 39 36 31 31 31 31 29 26 19 17 17 16 16 17 19 20 22 24 23 25 28 31 33
25 15 11 6 5 15 31 24 13 13 17 32 44 46 44 41 41 45 49 51 50 48 45 42 38 38 37 34 31 27 26 26 24 22 15 15 14 15 16 20 22 24 25 27 29 30 31 32 34
10 23 8 10 11 12 7 17 22 14 16 34 56 59 52 46 47 51 52 50 49 46 42 40 37 35 33 30 29 26 25 23 18 17 16 15 15 17 19 21 24 27 30 32 34 35 37 39 40
30 30 9 14 11 4 5 14 9 1 12 10 48 56 54 52 51 53 52 50 48 45 43 38 35 33 31 28 28 26 22 18 14 11 11 13 17 19 21 22 25 26 28 31 36 41 44 47 50
19 22 4 11 3 3 11 8 10 8 12 20 42 52 58 58 60 64 60 54 51 47 42 36 32 31 30 26 23 21 17 12 8 7 9 12 18 21 26 29 31 35 38 42 46 48 53 57 61
12 24 9 7 10 12 10 12 17 21 31 27 40 61 59 57 57 59 61 59 54 48 44 40 34 31 29 26 22 17 12 8 4 6 10 14 18 22 26 31 34 38 42 46 49 53 56 60 64
11 14 7 5 7 9 7 10 10 23 32 39 49 61 69 68 66 70 70 63 57 55 51 47 43 37 32 27 21 15 10 3 3 8 14 18 23 27 31 34 39 42 45 49 54 60 65 69 73
16 18 24 14 11 8 6 12 9 6 18 38 47 57 64 68 73 75 75 72 69 63 58 53 47 40 32 26 21 16 10 4 6 11 16 22 27 33 37 40 43 47 51 55 61 67 73 77 80
Wind_Direction_500mb
357 78 122 90 210 162 103 103 332 140 159 33 75 311 36 29 14 43 7 124 139 177 182 179 171 170 174 179 177 170 165 161 146 131 120 102 60 32 350 39 56 41 32 32 26 29 26 31 39
46 96 82 238 213 148 111 93 129 58 49 32 126 316 65 68 38 58 43 67 122 170 184 183 179 179 181 179 178 180 181 175 176 172 150 131 117 95 327 9 23 18 14 17 13 18 17 16 11
53 69 264 73 94 114 121 146 83 37 61 247 166 43 28 36 33 45 32 94 117 162 182 187 184 182 185 180 186 188 188 199 185 188 192 224 313 345 342 353 356 353 354 356 357 9 6 359 327
46 17 61 266 111 92 78 83 13 166 120 64 349 112 75 38 32 15 43 102 113 157 181 189 190 187 190 189 193 199 207 201 202 200 236 301 341 333 358 344 334 336 345 345 357 2 3 5 360
44 80 162 129 120 119 215 1 323 134 97 76 339 86 78 33 48 60 90 105 116 156 178 191 199 197 194 195 198 200 205 209 210 225 254 262 325 15 4 347 335 353 355 6 358 6 14 16 20
270 215 203 188 151 153 203 322 215 139 81 84 75 109 77 49 68 90 123 132 132 158 176 195 202 203 202 205 211 215 221 219 222 232 244 266 300 343 348 352 340 338 356 12 4 9 25 34 44
94 243 146 148 151 167 143 323 186 86 130 77 11 136 134 30 20 339 198 180 168 171 179 188 203 209 208 210 215 217 224 230 230 234 234 246 275 309 329 340 349 1 25 25 14 9 23 50 86
87 86 146 170 180 151 112 154 92 30 82 67 52 119 166 300 331 267 231 206 198 191 192 196 200 208 211 216 225 216 227 230 238 246 242 246 265 292 299 309 297 0 19 22 23 11 8 351 262
85 215 179 171 174 144 137 169 121 328 219 55 69 87 278 290 295 250 220 213 209 210 210 207 206 209 214 211 223 217 219 230 239 250 248 246 258 276 284 299 292 316 8 18 19 6 358 310 274
267 245 168 145 170 151 140 168 353 212 330 129 132 333 297 276 248 231 222 220 226 225 226 224 224 222 217 218 211 219 222 225 236 245 253 249 249 255 276 312 328 331 338 340 354 1 345 327 298
137 259 153 181 201 175 155 251 124 264 160 42 326 335 5 98 207 213 220 228 240 241 239 240 237 235 230 220 219 212 217 228 232 239 247 249 251 263 287 303 308 325 338 338 341 329 334 326 307
210 194 213 169 176 160 185 175 143 89 133 242 253 96 67 87 105 116 137 194 240 248 247 248 250 243 235 222 213 211 209 222 229 230 233 239 261 266 273 283 298 304 316 310 314 326 316 316 300
222 200 216 220 229 242 193 210 161 95 141 153 154 117 55 51 50 34 1 324 289 267 258 256 253 247 228 217 197 197 196 203 216 218 230 237 238 259 270 273 273 284 294 295 292 308 319 318 302
156 246 269 268 236 203 203 162 173 146 145 159 176 204 11 9 4 354 326 305 298 296 292 279 261 240 213 197 187 192 195 205 208 221 225 223 234 241 252 253 264 278 281 279 278 302 319 318 313
176 275 277 248 251 203 152 151 168 149 168 169 181 344 348 344 332 298 310 320 316 307 296 280 246 196 184 183 187 188 193 201 201 217 230 229 229 232 243 237 251 261 250 238 270 290 308 326 322
245 251 263 131 174 174 199 180 160 190 194 197 224 264 281 296 311 326 1 31 28 31 27 78 145 162 166 173 180 179 168 170 175 203 226 250 263 261 266 257 254 263 237 239 282 301 311 315 310
207 255 220 269 209 171 217 187 169 158 189 187 192 214 216 247 252 171 104 92 87 88 92 103 125 143 156 160 163 168 172 172 170 168 195 44 243 238 250 230 207 185 257 308 310 320 315 312 307
206 214 222 235 174 212 224 231 173 191 202 199 187 170 139 125 149 139 128 123 114 114 113 116 127 137 145 153 151 149 142 137 130 126 117 136 111 78 81 85 333 335 327 319 312 311 314 313 307
195 214 228 205 172 235 239 252 202 194 196 201 195 169 145 134 138 141 140 136 128 124 122 128 134 136 139 140 143 145 144 137 146 143 129 125 99 35 353 316 317 335 327 337 347 346 333 323 325
217 240 239 271 207 241 255 251 196 198 211 204 182 170 153 136 134 143 145 142 140 136 132 131 133 131 134 139 149 148 140 136 127 124 131 129 123 100 69 62 53 34 26 13 359 360 2 357 355
225 227 234 259 159 232 276 259 228 180 175 169 167 165 155 147 138 135 138 138 137 137 136 140 142 143 143 137 129 124 123 119 117 113 109 99 90 83 77 69 56 43 31 20 16 13 13 19 15
232 215 230 226 233 259 216 281 212 197 189 193 183 181 171 161 148 138 135 134 134 132 130 129 128 126 123 123 124 125 122 122 112 104 92 87 79 67 56 48 38 26 20 14 9 6 4 1 2
268 150 204 211 230 264 205 259 219 173 214 201 192 189 181 172 160 149 143 137 132 128 128 129 128 128 126 125 127 129 128 120 114 103 96 85 71 59 44 32 25 19 14 12 7 2 359 357 355
136 107 85 101 189 250 230 219 193 204 215 185 190 191 184 177 169 160 151 143 138 136 135 135 136 134 134 135 133 126 118 113 112 109 103 80 63 49 32 19 11 7 2 358 355 353 350 348 346
178 164 173 213 209 246 137 206 250 210 183 193 185 188 184 181 177 170 161 154 148 146 145 145 146 144 141 140 135 128 121 115 107 97 73 60 38 21 12 6 358 354 352 349 345 343 341 338 336
189 189 197 203 202 190 119 228 240 115 157 186 191 185 181 184 184 179 172 166 159 157 155 155 153 151 149 148 140 132 122 115 97 72 59 17 3 359 350 347 343 336 332 329 329 329 328 327 326
183 212 142 106 67 248 209 230 236 183 190 170 180 184 188 189 188 185 180 175 171 169 164 164 164 163 161 155 147 138 131 115 91 53 13 354 340 338 333 332 330 327 328 327 327 325 324 323 323
208 150 172 223 207 229 213 244 232 206 205 188 185 191 193 193 193 191 187 184 182 177 174 173 174 177 173 167 162 155 142 132 88 6 345 331 323 321 322 323 325 324 325 323 322 321 320 318 316
159 188 212 199 216 222 256 224 208 212 198 192 197 194 192 193 195 195 194 192 190 188 185 183 184 183 183 178 174 170 165 153 346 338 322 318 318 320 318 317 317 318 319 319 320 320 319 317 315
242 215 192 200 186 243 294 250 153 177 194 197 196 197 196 197 198 199 198 196 196 194 191 190 188 187 187 188 191 194 195 224 309 310 312 315 317 316 316 315 316 317 318 318 318 317 315 314 312
Wind_Speed_850mb
4 3 5 3 6 2 8 8 4 3 3 3 2 4 10 8 10 7 7 6 7 24 37 33 30 27 25 23 22 20 16 12 10 8 8 7 5 8 12 11 13 13 14 11 11 12 12 9 8
4 5 4 1 4 10 11 4 5 6 4 1 2 1 2 13 9 6 8 6 9 23 35 32 32 28 23 22 25 21 16 13 9 8 7 7 7 3 6 14 15 15 14 14 11 11 11 8 5
3 4 2 1 1 8 9 4 3 3 2 1 2 3 5 7 11 7 8 6 9 19 32 31 29 30 26 23 23 21 17 12 11 9 6 5 3 2 6 14 16 14 13 12 10 11 10 7 4
3 3 5 3 13 6 5 6 2 1 3 2 1 9 7 10 6 8 7 8 9 13 28 29 25 27 26 25 24 23 18 14 12 11 6 6 16 8 8 14 16 15 13 10 9 11 9 8 3
3 0 3 6 7 5 2 2 3 4 3 3 3 8 9 12 9 9 9 9 10 11 20 26 25 22 22 21 19 19 17 15 12 10 8 5 5 5 10 17 17 16 12 8 11 10 9 6 5
0 0 6 9 9 4 3 4 3 4 4 4 3 6 9 12 7 6 7 7 9 13 14 20 26 25 23 22 22 21 19 17 16 13 10 11 7 8 11 16 12 13 7 7 9 8 8 6 4
1 2 2 8 12 9 5 2 3 4 7 9 3 5 11 9 10 2 3 4 7 10 15 17 22 28 27 25 23 22 20 19 17 15 15 16 12 12 12 14 12 8 4 7 8 8 6 4 3
4 1 8 5 12 8 5 5 3 6 6 4 3 3 5 13 9 8 9 9 11 13 16 18 20 25 27 27 27 25 22 20 19 20 20 19 16 16 18 16 12 8 8 8 8 8 7 3 1
4 4 5 9 12 10 5 6 3 3 0 6 5 3 10 17 12 10 13 12 13 16 17 19 22 24 27 30 31 27 25 23 23 23 22 20 19 17 14 18 12 11 9 12 10 8 6 3 3
1 4 3 4 6 9 7 2 3 5 5 9 6 12 18 16 14 15 16 17 17 18 21 22 24 25 26 29 32 27 29 28 27 24 23 23 19 16 15 15 15 19 13 11 11 11 10 9 8
2 2 6 7 8 5 7 3 3 3 5 9 11 11 5 0 5 9 12 16 19 22 25 29 30 30 30 26 25 26 30 30 27 24 23 24 21 22 17 18 17 20 19 16 20 19 13 13 13
5 4 5 5 10 8 7 5 5 5 4 5 4 4 7 8 8 6 4 3 6 10 15 24 33 37 35 31 23 20 23 24 23 23 21 18 17 21 20 17 17 18 19 17 19 21 22 18 15
5 4 8 9 13 11 8 10 6 8 7 7 4 1 3 6 6 6 5 6 8 11 15 19 25 29 38 35 25 20 21 26 28 31 29 25 25 22 19 18 18 17 20 22 20 24 24 22 19
5 5 12 13 10 8 10 7 11 8 9 4 4 1 2 3 4 5 4 7 12 17 20 21 22 24 33 38 33 31 27 25 26 26 29 28 25 24 24 23 18 20 22 24 23 24 29 36 25
3 9 13 18 7 9 20 10 9 7 12 6 1 3 6 7 5 6 9 10 11 13 14 14 14 21 40 44 40 33 26 21 17 16 22 22 24 31 26 23 26 28 29 21 24 21 26 31 42
5 5 7 6 8 7 15 8 15 3 14 6 2 3 4 8 9 8 5 6 7 8 6 5 10 23 39 42 38 32 25 17 11 7 10 16 18 17 22 23 21 15 11 8 12 16 23 30 43
6 12 12 6 7 6 16 3 14 7 10 8 4 2 2 2 2 2 5 8 11 15 18 19 26 32 36 38 35 28 24 16 13 9 5 1 14 16 8 10 11 9 7 8 12 17 23 29 36
16 12 10 13 8 10 13 13 14 10 12 10 8 6 5 4 5 11 15 17 20 25 26 29 33 36 35 34 33 31 25 21 17 12 8 3 2 9 12 6 4 9 12 14 17 23 29 36 46
7 10 18 7 5 9 24 23 24 18 14 13 12 11 10 9 13 18 21 23 29 33 35 37 38 44 41 40 33 30 28 26 20 15 13 6 5 3 5 8 11 9 16 17 18 19 23 27 26
13 19 23 11 7 8 20 26 15 22 15 15 16 15 15 16 18 24 28 31 35 39 39 39 38 38 33 31 25 25 23 23 23 20 15 11 7 5 5 10 12 13 16 16 17 18 22 25 32
25 27 23 18 3 8 11 27 25 9 11 13 15 18 19 20 23 31 36 40 42 42 42 39 37 35 33 31 32 35 36 35 33 30 28 27 24 22 19 18 18 17 17 20 23 24 26 29 31
28 24 19 16 9 19 5 13 8 14 15 20 24 26 27 30 35 41 46 51 51 51 49 47 45 43 41 38 35 34 34 37 35 30 27 24 21 19 18 18 17 18 20 21 25 27 29 30 30
10 9 19 13 21 10 16 12 8 10 21 25 36 36 34 33 39 46 50 54 54 51 49 45 43 41 39 36 31 31 31 31 29 26 19 17 17 16 16 17 19 20 22 24 23 25 28 31 33
25 15 11 6 5 15 31 24 13 13 17 32 44 46 44 41 41 45 49 51 50 48 45 42 38 38 37 34 31 27 26 26 24 22 15 15 14 15 16 20 22 24 25 27 29 30 31 32 34
10 23 8 10 11 12 7 17 22 14 16 34 56 59 52 46 47 51 52 50 49 46 42 40 37 35 33 30 29 26 25 23 18 17 16 15 15 17 19 21 24 27 30 32 34 35 37 39 40
30 30 9 14 11 4 5 14 9 1 12 10 48 56 54 52 51 53 52 50 48 45 43 38 35 33 31 28 28 26 22 18 14 11 11 13 17 19 21 22 25 26 28 31 36 41 44 47 50
19 22 4 11 3 3 11 8 10 8 12 20 42 52 58 58 60 64 60 54 51 47 42 36 32 31 30 26 23 21 17 12 8 7 9 12 18 21 26 29 31 35 38 42 46 48 53 57 61
12 24 9 7 10 12 10 12 17 21 31 27 40 61 59 57 57 59 61 59 54 48 44 40 34 31 29 26 22 17 12 8 4 6 10 14 18 22 26 31 34 38 42 46 49 53 56 60 64
11 14 7 5 7 9 7 10 10 23 32 39 49 61 69 68 66 70 70 63 57 55 51 47 43 37 32 27 21 15 10 3 3 8 14 18 23 27 31 34 39 42 45 49 54 60 65 69 73
16 18 24 14 11 8 6 12 9 6 18 38 47 57 64 68 73 75 75 72 69 63 58 53 47 40 32 26 21 16 10 4 6 11 16 22 27 33 37 40 43 47 51 55 61 67 73 77 80
Wind_Direction_850mb
357 78 122 90 210 162 103 103 332 140 159 33 75 311 36 29 14 43 7 124 139 177 182 179 171 170 174 179 177 170 165 161 146 131 120 102 60 32 350 39 56 41 32 32 26 29 26 31 39
46 96 82 238 213 148 111 93 129 58 49 32 126 316 65 68 38 58 43 67 122 170 184 183 179 179 181 179 178 180 181 175 176 172 150 131 117 95 327 9 23 18 14 17 13 18 17 16 11
53 69 264 73 94 114 121 146 83 37 61 247 166 43 28 36 33 45 32 94 117 162 182 187 184 182 185 180 186 188 188 199 185 188 192 224 313 345 342 353 356 353 354 356 357 9 6 359 327
46 17 61 266 111 92 78 83 13 166 120 64 349 112 75 38 32 15 43 102 113 157 181 189 190 187 190 189 193 199 207 201 202 200 236 301 341 333 358 344 334 336 345 345 357 2 3 5 360
44 80 162 129 120 119 215 1 323 134 97 76 339 86 78 33 48 60 90 105 116 156 178 191 199 197 194 195 198 200 205 209 210 225 254 262 325 15 4 347 335 353 355 6 358 6 14 16 20
270 215 203 188 151 153 203 322 215 139 81 84 75 109 77 49 68 90 123 132 132 158 176 195 202 203 202 205 211 215 221 219 222 232 244 266 300 343 348 352 340 338 356 12 4 9 25 34 44
94 243 146 148 151 167 143 323 186 86 130 77 11 136 134 30 20 339 198 180 168 171 179 188 203 209 208 210 215 217 224 230 230 234 234 246 275 309 329 340 349 1 25 25 14 9 23 50 86
87 86 146 170 180 151 112 154 92 30 82 67 52 119 166 300 331 267 231 206 198 191 192 196 200 208 211 216 225 216 227 230 238 246 242 246 265 292 299 309 297 0 19 22 23 11 8 351 262
85 215 179 171 174 144 137 169 121 328 219 55 69 87 278 290 295 250 220 213 209 210 210 207 206 209 214 211 223 217 219 230 239 250 248 246 258 276 284 299 292 316 8 18 19 6 358 310 274
267 245 168 145 170 151 140 168 353 212 330 129 132 333 297 276 248 231 222 220 226 225 226 224 224 222 217 218 211 219 222 225 236 245 253 249 249 255 276 312 328 331 338 340 354 1 345 327 298
137 259 153 181 201 175 155 251 124 264 160 42 326 335 5 98 207 213 220 228 240 241 239 240 237 235 230 220 219 212 217 228 232 239 247 249 251 263 287 303 308 325 338 338 341 329 334 326 307
210 194 213 169 176 160 185 175 143 89 133 242 253 96 67 87 105 116 137 194 240 248 247 248 250 243 235 222 213 211 209 222 229 230 233 239 261 266 273 283 298 304 316 310 314 326 316 316 300
222 200 216 220 229 242 193 210 161 95 141 153 154 117 55 51 50 34 1 324 289 267 258 256 253 247 228 217 197 197 196 203 216 218 230 237 238 259 270 273 273 284 294 295 292 308 319 318 302
156 246 269 268 236 203 203 162 173 146 145 159 176 204 11 9 4 354 326 305 298 296 292 279 261 240 213 197 187 192 195 205 208 221 225 223 234 241 252 253 264 278 281 279 278 302 319 318 313
176 275 277 248 251 203 152 151 168 149 168 169 181 344 348 344 332 298 310 320 316 307 296 280 246 196 184 183 187 188 193 201 201 217 230 229 229 232 243 237 251 261 250 238 270 290 308 326 322
245 251 263 131 174 174 199 180 160 190 194 197 224 264 281 296 311 326 1 31 28 31 27 78 145 162 166 173 180 179 168 170 175 203 226 250 263 261 266 257 254 263 237 239 282 301 311 315 310
207 255 220 269 209 171 217 187 169 158 189 187 192 214 216 247 252 171 104 92 87 88 92 103 125 143 156 160 163 168 172 172 170 168 195 44 243 238 250 230 207 185 257 308 310 320 315 312 307
206 214 222 235 174 212 224 231 173 191 202 199 187 170 139 125 149 139 128 123 114 114 113 116 127 137 145 153 151 149 142 137 130 126 117 136 111 78 81 85 333 335 327 319 312 311 314 313 307
195 214 228 205 172 235 239 252 202 194 196 201 195 169 145 134 138 141 140 136 128 124 122 128 134 136 139 140 143 145 144 137 146 143 129 125 99 35 353 316 317 335 327 337 347 346 333 323 325
217 240 239 271 207 241 255 251 196 198 211 204 182 170 153 136 134 143 145 142 140 136 132 131 133 131 134 139 149 148 140 136 127 124 131 129 123 100 69 62 53 34 26 13 359 360 2 357 355
225 227 234 259 159 232 276 259 228 180 175 169 167 165 155 147 138 135 138 138 137 137 136 140 142 143 143 137 129 124 123 119 117 113 109 99 90 83 77 69 56 43 31 20 16 13 13 19 15
232 215 230 226 233 259 216 281 212 197 189 193 183 181 171 161 148 138 135 134 134 132 130 129 128 126 123 123 124 125 122 122 112 104 92 87 79 67 56 48 38 26 20 14 9 6 4 1 2
268 150 204 211 230 264 205 259 219 173 214 201 192 189 181 172 160 149 143 137 132 128 128 129 128 128 126 125 127 129 128 120 114 103 96 85 71 59 44 32 25 19 14 12 7 2 359 357 355
136 107 85 101 189 250 230 219 193 204 215 185 190 191 184 177 169 160 151 143 138 136 135 135 136 134 134 135 133 126 118 113 112 109 103 80 63 49 32 19 11 7 2 358 355 353 350 348 346
178 164 173 213 209 246 137 206 250 210 183 193 185 188 184 181 177 170 161 154 148 146 145 145 146 144 141 140 135 128 121 115 107 97 73 60 38 21 12 6 358 354 352 349 345 343 341 338 336
189 189 197 203 202 190 119 228 240 115 157 186 191 185 181 184 184 179 172 166 159 157 155 155 153 151 149 148 140 132 122 115 97 72 59 17 3 359 350 347 343 336 332 329 329 329 328 327 326
183 212 142 106 67 248 209 230 236 183 190 170 180 184 188 189 188 185 180 175 171 169 164 164 164 163 161 155 147 138 131 115 91 53 13 354 340 338 333 332 330 327 328 327 327 325 324 323 323
208 150 172 223 207 229 213 244 232 206 205 188 185 191 193 193 193 191 187 184 182 177 174 173 174 177 173 167 162 155 142 132 88 6 345 331 323 321 322 323 325 324 325 323 322 321 320 318 316
159 188 212 199 216 222 256 224 208 212 198 192 197 194 192 193 195 195 194 192 190 188 185 183 184 183 183 178 174 170 165 153 346 338 322 318 318 320 318 317 317 318 319 319 320 320 319 317 315
242 215 192 200 186 243 294 250 153 177 194 197 196 197 196 197 198 199 198 196 196 194 191 190 188 187 187 188 191 194 195 224 309 310 312 315 317 316 316 315 316 317 318 318 318 317 315 314 312